[[{"header":{"parameterUnit":"m.s-1","parameterCategory":1,"la1":30.2991,"la2":30.254,"lo1":-89.0895,"lo2":-89.0444,"dy":0.0017,"dx":0.0017,"nx":28,"ny":28,"refTime":"2024-07-12T03:00:00:Z","depth":0,"parameterNumber":2,"parameterNumberName":"U-component_of_WINDS"},"data":[0,0,0,0,0,0,0,0,0,0,0,0,0,0,0,0,0,0,0,0,0,0,0,0,0,0,0,0,0,0,0,0,0,0,0,0,0,0,0,0,0,0,0,0,0,0,0,0,0,0,0,0,0,0,0,0,0,0,0.6633,0.6634,0,0.6771,0.6773,0.6774,0.6795,0.6794,0.6792,0.6791,0.6936,0.6941,0.6946,0,0,0,0,0,0,0,0,0,0,0,0,0,0.6389,0.6393,0.6633,0.6634,0.6636,0.6771,0.6773,0.6775,0.6795,0.6794,0.6792,0.6791,0.6935,0.6941,0.6947,0,0,0,0,0,0,0,0,0,0,0,0,0,0.6508,0.6395,0.6632,0.6663,0.6667,0.677,0.6773,0.6775,0.6796,0.6794,0.6792,0.679,0.6933,0.694,0.6947,0.7032,0,0,0.697,0.6974,0,0,0,0,0,0,0,0,0.6501,0.6517,0.6656,0.6661,0.6665,0.6764,0.674,0.6861,0.6796,0.6747,0.6791,0.6789,0.6881,0.6892,0.6922,0.7038,0.7045,0.6971,0.6976,0.6979,0.6981,0,0,0,0,0,0,0,0.6493,0.6511,0.6687,0.6658,0.6664,0.667,0.6685,0.6763,0.6823,0.6751,0.6753,0.6769,0.6883,0.6915,0.6926,0.7047,0.6971,0.6978,0.6982,0.6985,0.7238,0.7241,0,0,0,0,0,0,0.6479,0.6504,0.6683,0.6692,0.6577,0.6676,0.6693,0.6734,0.6822,0.6833,0.677,0.6769,0.6903,0.6917,0.6931,0.7035,0.6979,0.6986,0.699,0.7236,0.7239,0.7241,0,0,0,0,0,0,0.6473,0.6495,0.6677,0.6598,0.6622,0.6682,0.6729,0.6738,0.677,0.6836,0.6847,0.6792,0.6902,0.6921,0.7006,0.7041,0.6989,0.6996,0.7234,0.7237,0.724,0.7244,0,0,0,0,0,0,0.6466,0.6492,0.6524,0.6599,0.6626,0.6749,0.6731,0.6742,0.6783,0.6783,0.686,0.6871,0.6902,0.6995,0.7014,0.705,0.7002,0.7231,0.7235,0.7239,0.7241,0.7247,0.7252,0,0,0,0,0,0.6458,0.6521,0.6526,0.6548,0.6667,0.6751,0.6767,0.6801,0.6785,0.6819,0.6861,0.6868,0.7034,0.7003,0.7025,0.7064,0.7229,0.7234,0.7239,0.7239,0.7246,0.7252,0,0,0,0,0,0,0.645,0.6531,0.6538,0.6627,0.6682,0.6755,0.6797,0.6808,0.6869,0.6867,0.6907,0.6924,0.7008,0.7045,0.7009,0.715,0.713,0.714,0.7123,0.713,0.7136,0.7125,0.7008,0,0,0,0,0,0.6459,0.6519,0.6587,0.6659,0.6687,0.6737,0.6775,0.6796,0.6855,0.6879,0.6928,0.6985,0.705,0.7092,0.7156,0.7247,0.7264,0.7284,0.729,0.7294,0.7302,0.7352,0.7362,0.7258,0.7258,0.7257,0,0,0.6478,0.6529,0.6565,0.6659,0.6704,0.6767,0.6757,0.6823,0.687,0.6889,0.6973,0.701,0.7078,0.7166,0.7207,0.7199,0.7334,0.73,0.7303,0.7309,0.7358,0.7368,0.7377,0.7261,0.726,0.726,0,0,0.6544,0.6589,0.6654,0.6699,0.6767,0.68,0.6815,0.6886,0.6912,0.6996,0.7011,0.7068,0.7179,0.7226,0.7265,0.7348,0.7357,0.7367,0.7396,0.7445,0.7453,0.7461,0.749,0.75,0.7375,0.7375,0.7375,0,0.6559,0.6653,0.6686,0.6752,0.6793,0.6812,0.6878,0.692,0.7006,0.7034,0.7023,0.7163,0.7209,0.7309,0.7329,0.7359,0.7379,0.7359,0.7449,0.7457,0.7465,0.7493,0.7504,0.7376,0.7376,0.7376,0.7375,0,0.6668,0.6733,0.6777,0.6858,0.6904,0.6969,0.7013,0.7056,0.7073,0.7107,0.7193,0.7249,0.7324,0.7349,0.7367,0.7451,0.7444,0.7441,0.7422,0.7475,0.7502,0.7513,0.7377,0.7377,0.7376,0.7376,0,0,0.6734,0.6831,0.6847,0.6884,0.696,0.7011,0.7077,0.7149,0.7185,0.7244,0.7301,0.7394,0.7391,0.7435,0.7458,0.7501,0.7562,0.7493,0.7495,0.7503,0.7658,0.766,0.7672,0.7569,0.7571,0.7573,0.7653,0,0.6809,0.6927,0.6959,0.7059,0.7119,0.7138,0.7196,0.7249,0.7283,0.734,0.7378,0.7443,0.7434,0.7461,0.7504,0.7546,0.7594,0.754,0.7623,0.7625,0.7605,0.7687,0.7689,0.7762,0.7664,0.7666,0.7667,0,0.6912,0.6971,0.7077,0.7144,0.7171,0.7222,0.7291,0.7345,0.7405,0.7427,0.7475,0.7494,0.7565,0.7542,0.764,0.7602,0.7638,0.7664,0.7667,0.7677,0.7649,0.7698,0.7786,0.7796,0.7684,0.7683,0.7682,0,0.6949,0.7055,0.7132,0.7163,0.7244,0.7279,0.7315,0.7374,0.7415,0.7475,0.7502,0.757,0.7607,0.766,0.7697,0.7676,0.7792,0.7772,0.7812,0.7811,0.7836,0.7833,0.793,0.7859,0.7858,0.7858,0.7858,0,0.7029,0.7093,0.715,0.7197,0.727,0.7306,0.7377,0.7413,0.7465,0.7521,0.7541,0.7593,0.7639,0.7697,0.7726,0.7803,0.782,0.7839,0.7846,0.7837,0.7835,0.7861,0.7857,0.7861,0.786,0.786,0.7859,0,0.7083,0.7123,0.7208,0.7277,0.7296,0.7347,0.7406,0.7453,0.7487,0.7557,0.7575,0.7629,0.7698,0.774,0.7829,0.7848,0.7933,0.7938,0.7912,0.7915,0.7953,0.7948,0.807,0.8087,0.8004,0.8005,0.8006,0,0.7131,0.7181,0.7255,0.7293,0.7328,0.7389,0.7431,0.7469,0.7511,0.7584,0.7622,0.7692,0.775,0.786,0.7908,0.7975,0.7982,0.802,0.7992,0.7981,0.7982,0.7978,0.7984,0.8024,0.8025,0.8026,0.8026,0,0.7213,0.723,0.7289,0.7355,0.7403,0.7457,0.7511,0.7541,0.7588,0.7635,0.7705,0.775,0.7839,0.7908,0.7979,0.8017,0.803,0.8034,0.8047,0.8038,0.8021,0.803,0.7924,0.8031,0.8031,0.803,0.803,0.803,0.7266,0.731,0.7369,0.7434,0.7478,0.7527,0.7574,0.7614,0.7673,0.7747,0.7766,0.784,0.7899,0.7996,0.8035,0.8093,0.8088,0.8106,0.8111,0.8115,0.8116,0.8011,0.8107,0.8107,0.8106,0.8106,0.8106,0,0.7348,0.7386,0.7445,0.7519,0.757,0.7576,0.7636,0.7678,0.7742,0.7796,0.7852,0.7933,0.8,0.8052,0.8121,0.8158,0.8166,0.8175,0.8173,0.8181,0.8117,0.8099,0.8168,0.8168,0.8168,0.8168,0.8168,0.8168,0.7397,0.7472,0.7496,0.7594,0.7633,0.7704,0.7737,0.7783,0.7826,0.7915,0.797,0.8004,0.8057,0.813,0.8192,0.8206,0.823,0.8238,0.8253,0.8192,0.8186,0.8179,0.8162,0.8244,0.8244,0.8312,0.8313,0.8313]},{"header":{"parameterUnit":"m.s-1","parameterCategory":1,"la1":30.2991,"la2":30.254,"lo1":-89.0895,"lo2":-89.0444,"dy":0.0017,"dx":0.0017,"nx":28,"ny":28,"refTime":"2024-07-12T03:00:00:Z","depth":0,"parameterNumber":3,"parameterNumberName":"V-component_of_WINDS"},"data":[0,0,0,0,0,0,0,0,0,0,0,0,0,0,0,0,0,0,0,0,0,0,0,0,0,0,0,0,0,0,0,0,0,0,0,0,0,0,0,0,0,0,0,0,0,0,0,0,0,0,0,0,0,0,0,0,0,0,1.9154,1.9154,0,1.9137,1.9137,1.9137,1.9126,1.9126,1.9126,1.9126,1.9106,1.9106,1.9105,0,0,0,0,0,0,0,0,0,0,0,0,0,1.9173,1.9173,1.9154,1.9154,1.9154,1.9137,1.9137,1.9137,1.9126,1.9126,1.9126,1.9126,1.9107,1.9106,1.9105,0,0,0,0,0,0,0,0,0,0,0,0,0,1.9162,1.9173,1.9154,1.9147,1.9146,1.9138,1.9137,1.9137,1.9126,1.9126,1.9126,1.9126,1.9107,1.9106,1.9105,1.9103,0,0,1.9103,1.9103,0,0,0,0,0,0,0,0,1.9162,1.9161,1.9148,1.9147,1.9146,1.9134,1.9137,1.9125,1.9126,1.9134,1.9126,1.9126,1.9115,1.9114,1.9111,1.9102,1.9101,1.9103,1.9103,1.9102,1.9102,0,0,0,0,0,0,0,1.9163,1.9162,1.9148,1.9148,1.9147,1.9143,1.9141,1.9134,1.9125,1.9133,1.9132,1.913,1.9115,1.9112,1.911,1.9101,1.9103,1.9103,1.9102,1.9102,1.9085,1.9085,0,0,0,0,0,0,1.9166,1.9162,1.9148,1.9147,1.9154,1.9142,1.914,1.9138,1.9125,1.9123,1.9131,1.913,1.9113,1.9111,1.911,1.9103,1.9102,1.9102,1.9101,1.9085,1.9085,1.9085,0,0,0,0,0,0,1.9166,1.9164,1.9149,1.9154,1.9152,1.9142,1.9139,1.9138,1.9134,1.9123,1.9121,1.9129,1.9113,1.9111,1.9104,1.9103,1.9101,1.9101,1.9085,1.9085,1.9085,1.9093,0,0,0,0,0,0,1.9167,1.9165,1.9165,1.9155,1.9152,1.9145,1.9139,1.9137,1.9133,1.9133,1.9122,1.912,1.9113,1.9105,1.9103,1.9102,1.91,1.9085,1.9085,1.9085,1.9092,1.9093,1.9093,0,0,0,0,0,1.9167,1.9168,1.9165,1.9163,1.9152,1.9145,1.9143,1.9136,1.9134,1.9133,1.9125,1.912,1.9103,1.9104,1.9102,1.9101,1.9085,1.9085,1.9085,1.9092,1.9093,1.9093,0,0,0,0,0,0,1.9178,1.9167,1.9163,1.9161,1.9154,1.9143,1.9142,1.9137,1.913,1.913,1.912,1.9117,1.9111,1.9105,1.9107,1.9095,1.9093,1.9093,1.91,1.91,1.91,1.9102,1.91,0,0,0,0,0,1.9181,1.9177,1.9166,1.9165,1.9162,1.9152,1.9149,1.9144,1.9136,1.9133,1.9125,1.9116,1.9109,1.9104,1.9097,1.9091,1.9087,1.9089,1.9089,1.909,1.9089,1.9083,1.9082,1.9084,1.9084,1.9084,0,0,1.9185,1.9178,1.9176,1.9167,1.9161,1.9156,1.915,1.9145,1.914,1.9132,1.9124,1.9118,1.9108,1.9101,1.9097,1.9096,1.9087,1.909,1.909,1.9089,1.9083,1.9082,1.9082,1.9084,1.9084,1.9084,0,0,1.919,1.9185,1.9183,1.9176,1.9167,1.916,1.916,1.9149,1.9144,1.9137,1.9129,1.9123,1.9111,1.9103,1.9098,1.9096,1.909,1.9094,1.9096,1.909,1.909,1.909,1.9087,1.9086,1.9094,1.9094,1.9094,0,1.9197,1.9189,1.9182,1.9177,1.9172,1.9163,1.9159,1.9153,1.9141,1.9137,1.9136,1.9119,1.9112,1.9101,1.9101,1.9097,1.9094,1.9095,1.9091,1.909,1.909,1.9087,1.9087,1.9094,1.9094,1.9094,1.9094,0,1.9197,1.9191,1.919,1.9179,1.9174,1.9169,1.9159,1.9154,1.9148,1.9141,1.9132,1.9123,1.9112,1.9109,1.9104,1.9097,1.9096,1.9093,1.909,1.909,1.9088,1.9087,1.9095,1.9094,1.9094,1.9094,0,0,1.921,1.9193,1.9192,1.9186,1.9174,1.9169,1.9162,1.9152,1.9147,1.9139,1.9132,1.9121,1.9117,1.911,1.9104,1.9098,1.9095,1.9095,1.9095,1.9094,1.9084,1.9086,1.9085,1.9091,1.9091,1.9091,1.9084,0,1.9212,1.9201,1.9193,1.9185,1.9178,1.9168,1.9162,1.9153,1.9146,1.9138,1.9129,1.912,1.9117,1.9112,1.9107,1.9097,1.9092,1.9097,1.9082,1.9082,1.9085,1.9084,1.9086,1.9081,1.9083,1.9083,1.9083,0,1.9213,1.9205,1.9196,1.9182,1.9179,1.9174,1.9163,1.9156,1.9144,1.9139,1.913,1.9123,1.9113,1.9111,1.9096,1.91,1.9093,1.9087,1.9086,1.9084,1.9082,1.908,1.9079,1.9078,1.9082,1.9082,1.9082,0,1.9221,1.9208,1.92,1.9195,1.918,1.9176,1.9169,1.9157,1.915,1.914,1.9135,1.9123,1.9116,1.9106,1.9095,1.9095,1.908,1.9078,1.9073,1.9074,1.9071,1.9071,1.9067,1.9068,1.9068,1.9068,1.9068,0,1.9224,1.9219,1.9203,1.9199,1.9191,1.918,1.9173,1.9165,1.9154,1.9145,1.9136,1.9128,1.9114,1.9104,1.9095,1.9083,1.908,1.9074,1.9071,1.9074,1.9075,1.9069,1.9069,1.9068,1.9068,1.9068,1.9068,0,1.9232,1.9222,1.9212,1.9198,1.9193,1.9188,1.9175,1.9168,1.9159,1.9149,1.9146,1.9131,1.9118,1.9106,1.9089,1.9083,1.907,1.9067,1.9074,1.9072,1.9068,1.9068,1.906,1.9057,1.9061,1.9061,1.9061,0,1.9234,1.923,1.9214,1.9208,1.9201,1.9192,1.9185,1.9173,1.9165,1.915,1.9145,1.9131,1.912,1.9099,1.9086,1.9072,1.9068,1.9066,1.9066,1.9068,1.9066,1.9066,1.9064,1.9066,1.9066,1.9067,1.9067,0,1.9238,1.9233,1.9224,1.9211,1.9203,1.9193,1.9183,1.9178,1.9163,1.9155,1.9142,1.9133,1.9115,1.9101,1.9084,1.9075,1.9067,1.9066,1.9064,1.9067,1.907,1.9067,1.9073,1.9067,1.9067,1.9067,1.9067,1.9067,1.9242,1.9237,1.9224,1.9213,1.9204,1.9193,1.9186,1.9175,1.9165,1.9149,1.9142,1.9128,1.9113,1.9091,1.9082,1.9069,1.9067,1.9065,1.9064,1.9063,1.9063,1.9073,1.9066,1.9066,1.9066,1.9066,1.9066,0,1.9244,1.9235,1.9225,1.921,1.9201,1.9195,1.9182,1.9174,1.9162,1.915,1.9138,1.9121,1.9107,1.9092,1.9076,1.9068,1.9064,1.9064,1.9064,1.9062,1.9066,1.9069,1.9068,1.9068,1.9068,1.9068,1.9068,1.9068,1.9244,1.9234,1.9226,1.921,1.9201,1.9187,1.918,1.9169,1.9159,1.9141,1.9129,1.9119,1.9104,1.9087,1.9072,1.9068,1.9062,1.9063,1.9057,1.9062,1.9062,1.9062,1.9064,1.9062,1.9062,1.9053,1.9053,1.9053]}]]